Location: Hodgson Observatory
(42.9992°N, 96.7577°W)
Time: 05:48:01
(UTC-06:00)

Daily predictions for brighter satellites

Satellite Brightness Start Highest point End
(mag) Time Altitude Azimuth Time Altitude Azimuth Time Altitude Azimuth
CZ-3 R/B 4.5 03:58:02 19° SSW 04:06:17 25° S 04:13:24 10° SE
Lacrosse 5 3.9 04:31:36 23° NE 04:31:36 23° NE 04:33:32 10° NE
CENTAUR R/B 4.1 04:56:21 24° N 04:56:21 24° N 05:00:06 10° NNE
Nadezhda 3 Rocket 4.2 05:04:12 11° N 05:10:19 70° E 05:16:39 10° SSE
Cosmos 2369 Rocket 2.1 05:13:48 76° NNW 05:14:17 88° ENE 05:19:59 10° SSE
Meteor 1-11 Rocket 3.8 05:13:43 10° S 05:19:30 78° E 05:25:12 10° NNE
Lacrosse 4 Rocket 3.0 05:19:38 27° NNE 05:20:28 29° NE 05:24:03 10° ESE
Cosmos 1025 Rocket 3.8 05:20:52 35° NNE 05:22:21 51° ENE 05:26:35 10° SSE
Meteor 2-4 Rocket 4.0 05:20:13 17° N 05:24:30 67° ENE 05:30:11 10° SSE
Meteor 1-13 Rocket 4.2 05:25:46 50° NNW 05:27:18 71° W 05:33:10 10° S
ADEOS II 4.4 05:26:25 10° N 05:26:31 10° N 05:26:31 10° N
Abrixas rocket 4.0 05:38:30 27° NE 05:38:30 27° NE 05:40:24 10° ENE
Cosmos 44 Rocket 4.3 05:41:23 33° NNW 05:41:23 33° NNW 05:44:57 10° NNE
Cosmos 1943 Rocket 2.3 05:37:39 26° NNW 05:40:50 69° ENE 05:46:19 10° SSE
Cosmos 1943 3.1 05:39:04 32° SW 05:41:38 65° WNW 05:47:17 10° NNE
Cosmos 1452 Rocket 3.4 05:41:22 47° NW 05:42:46 69° WSW 05:47:59 10° S
Cosmos 2341 Rocket 3.9 05:38:38 10° S 05:44:55 86° W 05:51:11 10° N
Tiangong 2 2.6 05:52:03 28° S 05:52:03 28° S 05:54:15 10° SE
Cosmos 1544 Rocket 4.3 05:51:15 10° S 05:55:31 55° E 05:59:50 10° NNE
Cosmos 839 Rocket 4.1 05:52:47 19° NNW 05:57:37 77° NE 06:03:44 10° SE
USA 129 4.1 05:59:05 10° SE 06:00:53 22° ENE 06:01:15 21° NE
COSMO-SKYMED 1 2.6 05:59:39 10° S 06:03:54 54° W 06:05:46 30° NW
Cosmos 1461 3.8 06:00:00 10° SSW 06:04:11 51° ESE 06:08:15 10° NE
Cosmos 1536 4.3 06:02:02 10° SSW 06:08:01 22° NNW 06:09:39 10° N
Cosmos 2154 Rocket 4.2 06:00:03 10° SSW 06:05:57 46° WNW 06:11:54 10° N
USA 229 DEB 3.6 06:00:11 10° SW 06:07:04 73° NW 06:14:04 10° NNE
USA 229 3.6 06:00:18 10° SW 06:07:10 74° NW 06:14:09 10° NNE
CZ-2C R/B 4.4 06:04:07 10° NNE 06:08:41 32° E 06:13:07 10° SSE
Okean 2 3.3 06:07:33 15° NNW 06:10:57 73° W 06:15:04 10° S
NOAA 6 4.2 06:06:38 10° N 06:11:30 45° WNW 06:16:21 10° SW
Lacrosse 5 2.8 06:10:49 27° NW 06:11:50 29° NNW 06:16:15 10° NE
Cosmos 2084 3.2 06:16:05 23° WSW 06:18:14 53° NW 06:21:58 10° NNE
Cosmos 1892 Rocket 3.5 06:16:37 10° NNW 06:21:04 64° W 06:25:29 10° S
Cosmos 44 4.2 06:19:32 25° W 06:21:24 31° NW 06:25:58 10° NNE
Meteor 1-28 Rocket 3.2 06:17:49 10° S 06:21:33 58° W 06:24:44 14° NNW
CZ-4 R/B 2.4 06:18:00 10° NNE 06:21:48 46° E 06:25:32 10° S
Cosmos 1340 2.8 06:22:07 20° NNW 06:24:27 48° W 06:28:06 10° S
SMAP 4.5 06:21:03 10° NNE 06:25:28 41° E 06:29:52 10° S
Cosmos 1269 Rocket 4.0 06:22:35 10° SSW 06:27:48 61° WNW 06:33:04 10° NNE
Lacrosse 5 rocket 3.5 06:25:39 12° NNW 06:28:24 19° NNE 06:31:38 10° ENE
SL-8 Rocket 3.9 06:22:48 10° SSW 06:29:00 65° W 06:35:12 10° N
Cosmos 1626 Rocket 4.2 06:27:07 10° N 06:31:30 57° E 06:35:48 10° SSE
USA 215 3.2 06:25:38 10° NE 06:32:11 84° NW 06:38:43 10° SW
Cosmos 1420 Rocket 4.4 06:28:59 15° NW 06:32:53 41° WSW 06:37:43 10° S
CSL-04 Rocket 3.6 06:27:48 10° N 06:33:19 68° WNW 06:38:44 10° SSW
Cosmos 405 Rocket 4.4 06:31:16 10° N 06:34:43 32° ENE 06:38:05 10° SE
IRS-1A Rocket 4.4 06:32:33 10° NNE 06:38:20 90° WNW 06:44:11 10° SSW
Cosmos 1959 Rocket 4.4 06:35:03 10° SSW 06:41:04 63° W 06:47:09 10° N
Ariane Rocket 3.3 06:36:25 10° N 06:41:13 44° WNW 06:46:00 10° SW
Cosmos 2366 rocket 4.0 06:37:01 10° SSW 06:43:17 70° W 06:49:40 10° N
Cosmos 1455 Rocket 3.1 06:39:57 10° SSW 06:44:11 55° W 06:48:29 10° N
CSL-04 Debris 4.2 06:38:48 10° N 06:44:13 64° WNW 06:49:38 10° SSW
Cosmos 2251 Rocket 4.3 06:39:20 10° S 06:44:35 59° ESE 06:49:53 10° NNE
Cosmos 1331 Rocket 4.3 06:40:23 10° NNW 06:45:33 69° ENE 06:50:40 10° SSE
CENTAUR R/B 4.5 06:43:42 10° NW 06:47:28 15° N 06:51:29 10° NNE
Cosmos 1048 Rocket 4.2 06:42:58 10° SW 06:47:53 44° WNW 06:52:53 10° N
SJ-12 4.0 06:44:20 10° NNE 06:48:32 88° ESE 06:52:41 10° SSW
Cosmos 1975 2.8 06:49:46 10° SSW 06:53:50 63° W 06:57:55 10° N
Meteor 1-29 3.2 06:51:14 10° SSE 06:54:34 68° ENE 06:57:57 10° N
ATLAS 5 CENTAUR R/B 4.0 06:49:54 10° NNW 06:54:44 26° NE 06:59:54 10° E
Cosmos 2218 Rocket 4.2 06:49:54 10° SSW 06:56:05 49° WNW 07:02:15 10° N
Cosmos 2369 Rocket 3.9 06:55:40 11° WNW 06:57:26 13° W 06:59:51 10° WSW
Lacrosse 4 Rocket 2.4 06:56:02 12° NW 06:59:05 26° WSW 07:02:30 10° SSW
SPOT 3 Rocket 3.6 06:58:39 10° NNE 07:03:49 89° E 07:08:59 10° SSW
COSMOS 2406 3.2 07:01:24 10° SW 07:06:59 62° WNW 07:12:38 10° NNE
SL-27 R/B 3.1 07:10:16 10° SW 07:13:35 35° WNW 07:16:59 10° N
Abrixas rocket 3.3 07:11:31 10° WNW 07:14:36 32° N 07:17:40 10° ENE
ATLAS 3B R/B 3.9 07:08:49 10° NNW 07:15:09 35° NE 07:21:09 10° ESE
Cosmos 1821 Rocket 4.5 07:10:28 10° S 07:16:39 69° E 07:22:48 10° NNE
Cosmos 1727 Rocket 4.4 07:11:05 10° NNW 07:16:51 42° W 07:22:38 10° SSW
MOS 1 4.3 07:11:13 10° N 07:16:52 74° WNW 07:22:30 10° SSW
Cosmos 1867 4.0 07:11:34 10° NNW 07:17:02 65° NE 07:22:25 10° SE
YAOGAN 1 2.6 07:14:37 10° N 07:18:54 58° WNW 07:23:08 10° SSW
